Weather in Olgino

Russia / Stavropol Krai     44°19′45″N   44°24′22″E
temp.,
°C
wind,
m/s
gust,
m/s
humid.,
%
clouds,
%
prec.,
mm/h
press.,
hPa
HPBL,
m
20 april, tue
tue2000:00+15e368132 0.0 1015159
03:00+13ese4875100 0.0 1013134
06:00+12ese31066100 0.0 1011288
09:00+17ese71059100 0.0 1009434
12:00+21ese71053100 0.0 1006656
15:00+23e6951100 0.1 1005659
18:00+20e476398 0.0 1005188
21:00+16nnw3474100 0.0 100974
21 april, wed
wed2100:00+16nnw71383100 0.6 1012802
03:00+14wnw61264100 0.6 1015585
06:00+13nw51065100 0.0 1017553
09:00+13nw5868100 0.0 1019610
12:00+16nnw565895 0.0 1018960
15:00+17n455186 0.0 10181420
18:00+15ne356147 0.0 1020243
21:00+11ne347314 0.0 102181
22 april, thu
thu2200:00+11nne2368100 0.0 1021118
03:00+11ne1173100 0.0 102124
06:00+11ne2377100 0.0 1021110
09:00+11n4690100 0.3 1023359
12:00+11ne4683100 0.2 1023304
15:00+14nne2270100 0.2 1022695
18:00+14sw0071100 0.0 102297
21:00+12nnw1177100 0.0 102311
23 april, fri
fri2300:00+11wnw2280100 0.1 102229
03:00+10w1194100 3.4 102239
06:00+10wsw1193100 1.5 102364
09:00+11sw3491100 2.1 1024221
12:00+12sw4588100 1.4 1024352
15:00+15ssw446998 1.8 1023738
18:00+14ssw23735 0.0 102287
21:00+11ssw33855 0.0 102232
24 april, sat
sat2400:00+9sw23870 0.0 102121
03:00+9ssw2287100 0.0 102010
06:00+10s2283100 0.0 102038
09:00+14ese3364100 0.0 1019429
12:00+18ese3451100 0.0 1018974
15:00+20e334499 0.0 10181459
18:00+18nne3356100 0.0 101838
21:00+15ene3359100 0.0 101938